Weather History for Wooster, OH

Change the Weather History Date:

Tuesday, October 29, 2013

  Actual Average Record
Temperature  
Mean Temperature 42 °F -  
Max Temperature 57 °F 55 °F 75 °F (1999)
Min Temperature 28 °F 35 °F 26 °F (2011)
Degree Days  
Heating Degree Days 24    
Moisture  
Dew Point 33 °F    
Average Humidity 85    
Maximum Humidity 100    
Minimum Humidity 49    
Precipitation  
Precipitation 0.01 in - - ()
Sea Level Pressure  
Sea Level Pressure 30.36 in    
Wind  
Wind Speed 1 mph (ENE)    
Max Wind Speed 7 mph    
Max Gust Speed -    
Visibility 5 miles    
Events Fog    
Averages and records for this station are not official NWS values.
T = Trace of Precipitation, MM = Missing Value Source: NWS Daily Summary

Daily Weather History Graph

Daily Weather History Graph

Search for Another Location

Airport:

Trip Planner

Search our weather history database for the weather conditions in past years. The results will help you decide how hot, cold, wet, or windy it might be!

Date:

Astronomy

Oct. 29, 2013 Rise Set
Actual Time 7:54 AM EDT 6:26 PM EDT
Civil Twilight 7:26 AM EDT 6:55 PM EDT
Nautical Twilight 6:54 AM EDT 7:27 PM EDT
Astronomical Twilight 6:22 AM EDT 7:59 PM EDT
Moon 2:41 AM EDT (10/29) 3:41 PM EDT (10/29)
Length of Visible Light 11h 28m
Length of Day
10h 32m
Waning Crescent, 25% of the Moon is Illuminated
Oct 29
Waning Crescent
Nov 3
New
Nov 10
First Quarter
Nov 17
Full
Nov 25
Last Quarter

Hourly Weather History & Observations

Time (EDT) Temp. Windchill Dew Point Humidity Pressure Visibility Wind Dir Wind Speed Gust Speed Precip Events Conditions
12:56 AM 36.0 °F - 34.0 °F 93% 30.36 in 4.0 mi Calm Calm - N/A   Clear
1:56 AM 35.1 °F - 34.0 °F 96% 30.36 in 4.0 mi Calm Calm - N/A   Clear
2:56 AM 33.1 °F - 32.0 °F 96% 30.37 in 4.0 mi Calm Calm - N/A   Clear
3:00 AM 32.0 °F - 30.2 °F 93% 30.35 in 1.8 mi Calm Calm - N/A   Clear
3:11 AM 33.8 °F - 33.8 °F 100% 30.35 in 3.0 mi Calm Calm - N/A   Clear
3:56 AM 34.0 °F - 33.1 °F 96% 30.36 in 4.0 mi Calm Calm - N/A   Clear
4:56 AM 32.0 °F - 30.0 °F 92% 30.37 in 4.0 mi Calm Calm - N/A   Clear
5:51 AM 30.2 °F - 28.4 °F 93% 30.36 in 1.5 mi Calm Calm - N/A   Clear
5:56 AM 28.9 °F - 28.9 °F 100% 30.39 in 0.5 mi Calm Calm - N/A Fog Light Freezing Fog
6:06 AM 30.2 °F - 28.4 °F 93% 30.37 in 1.5 mi Calm Calm - N/A   Clear
6:08 AM 30.2 °F - 28.4 °F 93% 30.37 in 3.0 mi Calm Calm - N/A   Clear
6:25 AM 30.2 °F - 28.4 °F 93% 30.37 in 1.5 mi Calm Calm - N/A   Clear
6:28 AM 30.2 °F - 28.4 °F 93% 30.37 in 0.8 mi Calm Calm - N/A   Clear
6:36 AM 28.4 °F - 26.6 °F 93% 30.37 in 1.2 mi Calm Calm - N/A   Clear
6:38 AM 30.2 °F - 26.6 °F 86% 30.37 in 3.0 mi Calm Calm - N/A   Clear
6:56 AM 30.0 °F 26.5 °F 28.0 °F 92% 30.40 in 5.0 mi North 3.5 mph - N/A   Clear
7:56 AM 30.9 °F - 30.0 °F 96% 30.41 in 3.0 mi Calm Calm - N/A   Clear
8:03 AM 30.2 °F - 28.4 °F 93% 30.38 in 2.0 mi Calm Calm - N/A   Clear
8:28 AM 30.2 °F - 30.2 °F 100% 30.39 in 3.0 mi Calm Calm - N/A   Clear
8:56 AM 35.1 °F - 34.0 °F 96% 30.42 in 4.0 mi Calm Calm - N/A   Clear
9:13 AM 35.6 °F - 35.6 °F 100% 30.39 in 2.5 mi Calm Calm - 0.01 in   Clear
9:21 AM 37.4 °F - 35.6 °F 93% 30.39 in 4.0 mi Calm Calm - 0.01 in   Clear
9:56 AM 41.0 °F 38.0 °F 37.0 °F 86% 30.43 in 7.0 mi East 4.6 mph - 0.01 in   Clear
10:56 AM 46.0 °F 42.5 °F 39.0 °F 76% 30.42 in 10.0 mi East 6.9 mph - N/A   Clear
11:56 AM 51.1 °F - 39.0 °F 63% 30.43 in 10.0 mi ENE 4.6 mph - N/A   Clear
12:56 PM 54.0 °F - 37.9 °F 55% 30.39 in 10.0 mi Variable 6.9 mph - N/A   Clear
1:56 PM 55.0 °F - 37.0 °F 51% 30.36 in 10.0 mi Calm Calm - N/A   Clear
2:56 PM 55.9 °F - 37.0 °F 49% 30.32 in 10.0 mi Calm Calm - N/A   Clear
3:56 PM 55.0 °F - 37.0 °F 51% 30.33 in 10.0 mi Variable 3.5 mph - N/A   Clear
4:56 PM 55.0 °F - 37.9 °F 53% 30.33 in 10.0 mi Calm Calm - N/A   Clear
5:56 PM 48.9 °F - 39.0 °F 69% 30.32 in 10.0 mi East 4.6 mph - N/A   Clear
6:56 PM 45.0 °F - 37.0 °F 74% 30.32 in 10.0 mi Calm Calm - N/A   Clear
7:56 PM 39.9 °F - 36.0 °F 86% 30.32 in 8.0 mi Calm Calm - N/A   Clear
8:56 PM 42.1 °F - 37.0 °F 82% 30.32 in 9.0 mi Calm Calm - N/A   Clear
9:56 PM 39.9 °F - 37.0 °F 89% 30.31 in 8.0 mi Calm Calm - N/A   Clear
10:56 PM 39.9 °F - 37.9 °F 93% 30.29 in 8.0 mi Calm Calm - N/A   Clear
11:56 PM 41.0 °F - 37.0 °F 86% 30.27 in 7.0 mi Calm Calm - N/A   Clear